Weather History for Jordan, MT

Change the Weather History Date:

Saturday, September 15, 2012

  Actual Average Record
Temperature  
Mean Temperature 66 °F 57 °F  
Max Temperature 85 °F 73 °F 96 °F (2000)
Min Temperature 46 °F 41 °F 27 °F (1970)
Degree Days  
Heating Degree Days 0 8  
Month to date heating degree days 64 89  
Since 1 July heating degree days 96 154  
Cooling Degree Days 1 1  
Month to date cooling degree days 30 22  
Year to date cooling degree days 728 415  
Growing Degree Days 16 (Base 50)    
Moisture  
Dew Point 24 °F    
Average Humidity 23    
Maximum Humidity 35    
Minimum Humidity 11    
Precipitation  
Precipitation 0.00 in 0.04 in 0.38 in (2006)
Month to date precipitation 0.03 0.57  
Year to date precipitation 5.75 10.49  
Snow  
Snow 0.00 in - - ()
Month to date snowfall 0.0  
Since 1 July snowfall 0.0  
Since 1 September snowfall 0.0  
Snow Depth 0.00 in    
Sea Level Pressure  
Sea Level Pressure 29.99 in    
Wind  
Wind Speed 7 mph (NW)    
Max Wind Speed 14 mph    
Max Gust Speed 17 mph    
T = Trace of Precipitation, MM = Missing Value Source: NWS Daily Summary

Daily Weather History Graph

Daily Weather History Graph

Search for Another Location

Airport:

Trip Planner

Search our weather history database for the weather conditions in past years. The results will help you decide how hot, cold, wet, or windy it might be!

Date:

Astronomy

Sep. 15, 2012 Rise Set
Actual Time 6:45 AM MDT 7:18 PM MDT
Civil Twilight 6:15 AM MDT 7:49 PM MDT
Nautical Twilight 5:38 AM MDT 8:25 PM MDT
Astronomical Twilight 5:00 AM MDT 9:03 PM MDT
Moon 6:22 AM MDT (9/15) 6:46 PM MDT (9/15)
Length of Visible Light 13h 34m
Length of Day
12h 32m
Waning Crescent, 0% of the Moon is Illuminated
Sep 15
Waning Crescent
Sep 15
New
Sep 22
First Quarter
Sep 29
Full
Oct 8
Last Quarter

Hourly Weather History & Observations

Time (MDT) Temp. Dew Point Humidity Pressure Visibility Wind Dir Wind Speed Gust Speed Precip Events Conditions
12:48 AM 53.1 °F 23.0 °F 31% 29.96 in - West 5.8 mph - N/A   Unknown
1:48 AM 51.1 °F 24.1 °F 35% 29.96 in - West 6.9 mph - N/A   Unknown
2:48 AM 57.0 °F 21.9 °F 26% 29.96 in - WNW 8.1 mph - N/A   Unknown
3:48 AM 57.9 °F 21.0 °F 24% 29.96 in - WNW 9.2 mph - N/A   Unknown
4:48 AM 55.9 °F 19.9 °F 25% 29.97 in - West 8.1 mph - N/A   Unknown
5:48 AM 50.0 °F 19.9 °F 31% 29.99 in - West 6.9 mph - N/A   Unknown
6:48 AM 48.9 °F 19.9 °F 32% 30.00 in - West 4.6 mph - N/A   Unknown
7:48 AM 53.1 °F 21.0 °F 29% 30.00 in - WNW 5.8 mph - N/A   Unknown
8:48 AM 63.0 °F 21.0 °F 20% 30.01 in - West 3.5 mph - N/A   Unknown
9:48 AM 69.1 °F 23.0 °F 18% 30.01 in - WSW 3.5 mph - N/A   Unknown
10:48 AM 79.0 °F 28.0 °F 15% 30.00 in - NW 5.8 mph - N/A   Unknown
11:48 AM 82.9 °F 28.0 °F 14% 29.99 in - NNW 8.1 mph - N/A   Unknown
12:48 PM 84.0 °F 27.0 °F 13% 29.99 in - NNW 8.1 mph - N/A   Unknown
1:48 PM 84.9 °F 28.0 °F 13% 29.99 in - NNW 9.2 mph - N/A   Unknown
2:48 PM 84.0 °F 28.0 °F 13% 29.96 in - ENE 5.8 mph - N/A   Unknown
3:48 PM 84.0 °F 25.0 °F 12% 29.96 in - NNE 6.9 mph - N/A   Unknown
4:48 PM 82.9 °F 24.1 °F 12% 29.97 in - NNE 11.5 mph - N/A   Unknown
5:48 PM 81.0 °F 26.1 °F 13% 29.99 in - NNE 9.2 mph - N/A   Unknown
6:48 PM 71.1 °F 25.0 °F 18% 30.01 in - North 8.1 mph - N/A   Unknown
7:48 PM 64.9 °F 21.0 °F 19% 30.01 in - NNE 8.1 mph - N/A   Unknown
8:48 PM 60.1 °F 23.0 °F 24% 30.03 in - Calm Calm - N/A   Unknown
9:48 PM 63.0 °F 25.0 °F 24% 30.00 in - East 3.5 mph - N/A   Unknown
10:48 PM 63.0 °F 28.9 °F 28% 30.01 in - West 4.6 mph - N/A   Unknown
11:48 PM 66.0 °F 32.0 °F 28% 30.00 in - North 9.2 mph - N/A   Unknown